SL-8 DEB *, 3743

Orbit data source: Space-Track

SL-8 DEB *, 3743 is space debris in LEO originally from a launch on Mon, 15 Mar 1965 UTC launched from the Tyuratam Missile And Space Complex (TTMTR). Debris objects in space refer to the collection of defunct objects orbiting the Earth. Examples of debris include non-operational satellites, rocket bodies, and fragments generated from explosions, collisions, or faulty payload assembly.

Loading next visibility...
Identifier
3743, 1965-020ES
Orbit
LEO
Country
Flag of CISCIS
Related business
Manufacturer
Unknown
Mission
Spacecraft
Bus & Motor
Unknown
Mass
Unknown
Launch date (UTC)
1965-03-15 (61 years ago)
Launch vehicle
Unknown
Launch site
Tyuratam Missile And Space Complex (TTMTR)
Object type
Payload
Rocket body
Debris
Shape & HBR
Unknown shape, 0.1 m
Radar Cross Section
Small (<0.1 m²)

Expand to show TLE details & history
Last TLE update: 18 hours ago

TLE from 18 hours ago
0 SL-8 DEB *
1 03743U 65020ES  25286.67644716  .00000041  00000-0  10995-2 0  9995
2 03743  56.6588 162.9354 0261617 129.1867 269.2348 12.20688405544052
Epoch: 2025-10-13T16:14Z
TLE epoch observation values (Epoch: 2025-10-13T16:14:05.034Z)
Latitude
29.03421°
Longitude
-81.75027°
Altitude
1,599.619 km
Speed
7.069 km/s
True Right ascension
12h 16m 59s
True Declination
28° 54' 14"
Sunlit
Object was in daylight at epoch
Visualization orbit readout
Latitude
Unknown
Longitude
Unknown
Altitude
Unknown
Speed
Unknown
Apparent Right ascension
Unknown
Apparent Declination
Unknown
Sunlit
N/A
Visualization observer readout
Local Sidereal Time
04:40:18
Azimuth
Unknown
Elevation
Unknown
Doppler factor
Unknown
Orbital elements
Apogee altitude
1,797.731 km
Perigee altitude
1,380.849 km
Semi-major axis
7,967.427 km
Eccentricity
0.02616
Inclination
56.6588°
RAAN
162.9354°
Arg. of periapsis
129.1867°
True anomaly
266.23983°
Mean anomaly
269.2348°
Eccentric anomaly
267.73701°
Mean motion
3.05187 °/min
Orbital period
117.96 mins
BSTAR
0.0010995
Loading maneuver chart data...
Computing Atmospheric mass density...

Documentation

Showing up to 5 results
|